Year,Month,Day,Hour,Minute,Value (Times are PST for temperature in C)
2021,06,30,00,00,24.30
2021,06,30,00,01,24.20
2021,06,30,00,02,24.20
2021,06,30,00,03,24.20
2021,06,30,00,04,24.10
2021,06,30,00,05,24.10
2021,06,30,00,06,24.00
2021,06,30,00,07,24.00
2021,06,30,00,08,23.90
2021,06,30,00,09,23.90
2021,06,30,00,10,23.90
2021,06,30,00,11,23.90
2021,06,30,00,12,23.90
2021,06,30,00,13,23.80
2021,06,30,00,14,23.80
2021,06,30,00,15,23.80
2021,06,30,00,16,23.80
2021,06,30,00,17,23.80
2021,06,30,00,18,23.80
2021,06,30,00,19,23.80
2021,06,30,00,20,23.80
2021,06,30,00,21,23.80
2021,06,30,00,22,23.70
2021,06,30,00,23,23.70
2021,06,30,00,24,23.60
2021,06,30,00,25,23.60
2021,06,30,00,26,23.60
2021,06,30,00,27,23.60
2021,06,30,00,28,23.60
2021,06,30,00,29,23.60
2021,06,30,00,30,23.50
2021,06,30,00,31,23.50
2021,06,30,00,32,23.50
2021,06,30,00,33,23.40
2021,06,30,00,34,23.40
2021,06,30,00,35,23.40
2021,06,30,00,36,23.30
2021,06,30,00,37,23.30
2021,06,30,00,38,23.30
2021,06,30,00,39,23.30
2021,06,30,00,40,23.30
2021,06,30,00,41,23.30
2021,06,30,00,42,23.20
2021,06,30,00,43,23.20
2021,06,30,00,44,23.20
2021,06,30,00,45,23.20
2021,06,30,00,46,23.20
2021,06,30,00,47,23.20
2021,06,30,00,48,23.20
2021,06,30,00,49,23.20
2021,06,30,00,50,23.10
2021,06,30,00,51,23.10
2021,06,30,00,52,23.10
2021,06,30,00,53,23.10
2021,06,30,00,54,23.10
2021,06,30,00,55,23.10
2021,06,30,00,56,23.10
2021,06,30,00,57,23.10
2021,06,30,00,58,23.00
2021,06,30,00,59,23.00
2021,06,30,01,00,23.00
2021,06,30,01,01,23.00
2021,06,30,01,02,23.00
2021,06,30,01,03,22.90
2021,06,30,01,04,22.90
2021,06,30,01,05,22.90
2021,06,30,01,06,22.90
2021,06,30,01,07,22.90
2021,06,30,01,08,22.90
2021,06,30,01,09,22.90
2021,06,30,01,10,22.90
2021,06,30,01,11,22.90
2021,06,30,01,12,22.80
2021,06,30,01,13,22.90
2021,06,30,01,14,22.80
2021,06,30,01,15,22.80
2021,06,30,01,16,22.80
2021,06,30,01,17,22.80
2021,06,30,01,18,22.80
2021,06,30,01,19,22.80
2021,06,30,01,20,22.80
2021,06,30,01,21,22.80
2021,06,30,01,22,22.70
2021,06,30,01,23,22.70
2021,06,30,01,24,22.70
2021,06,30,01,25,22.70
2021,06,30,01,26,22.70
2021,06,30,01,27,22.70
2021,06,30,01,28,22.60
2021,06,30,01,29,22.60
2021,06,30,01,30,22.60
2021,06,30,01,31,22.60
2021,06,30,01,32,22.60
2021,06,30,01,33,22.50
2021,06,30,01,34,22.50
2021,06,30,01,35,22.40
2021,06,30,01,36,22.40
2021,06,30,01,37,22.40
2021,06,30,01,38,22.30
2021,06,30,01,39,22.30
2021,06,30,01,40,22.30
2021,06,30,01,41,22.30
2021,06,30,01,42,22.20
2021,06,30,01,43,22.20
2021,06,30,01,44,22.20
2021,06,30,01,45,22.20
2021,06,30,01,46,22.20
2021,06,30,01,47,22.10
2021,06,30,01,48,22.10
2021,06,30,01,49,22.10
2021,06,30,01,50,22.10
2021,06,30,01,51,22.10
2021,06,30,01,52,22.10
2021,06,30,01,53,22.10
2021,06,30,01,54,22.10
2021,06,30,01,55,22.10
2021,06,30,01,56,22.10
2021,06,30,01,57,22.10
2021,06,30,01,58,22.10
2021,06,30,01,59,22.10
2021,06,30,02,00,22.00
2021,06,30,02,01,22.10
2021,06,30,02,02,22.00
2021,06,30,02,03,22.00
2021,06,30,02,04,22.00
2021,06,30,02,05,22.00
2021,06,30,02,06,22.00
2021,06,30,02,07,22.00
2021,06,30,02,08,22.00
2021,06,30,02,09,22.00
2021,06,30,02,10,21.90
2021,06,30,02,11,21.90
2021,06,30,02,12,21.90
2021,06,30,02,13,21.90
2021,06,30,02,14,21.90
2021,06,30,02,15,21.90
2021,06,30,02,16,21.90
2021,06,30,02,17,21.90
2021,06,30,02,18,21.90
2021,06,30,02,19,21.90
2021,06,30,02,20,21.90
2021,06,30,02,21,21.90
2021,06,30,02,22,21.80
2021,06,30,02,23,21.80
2021,06,30,02,24,21.80
2021,06,30,02,25,21.80
2021,06,30,02,26,21.80
2021,06,30,02,27,21.80
2021,06,30,02,28,21.80
2021,06,30,02,29,21.80
2021,06,30,02,30,21.80
2021,06,30,02,31,21.80
2021,06,30,02,32,21.80
2021,06,30,02,33,21.80
2021,06,30,02,34,21.80
2021,06,30,02,35,21.80
2021,06,30,02,36,21.80
2021,06,30,02,37,21.70
2021,06,30,02,38,21.70
2021,06,30,02,39,21.70
2021,06,30,02,40,21.70
2021,06,30,02,41,21.70
2021,06,30,02,42,21.70
2021,06,30,02,43,21.60
2021,06,30,02,44,21.60
2021,06,30,02,45,21.60
2021,06,30,02,46,21.60
2021,06,30,02,47,21.60
2021,06,30,02,48,21.50
2021,06,30,02,49,21.50
2021,06,30,02,50,21.50
2021,06,30,02,51,21.50
2021,06,30,02,52,21.40
2021,06,30,02,53,21.40
2021,06,30,02,54,21.40
2021,06,30,02,55,21.40
2021,06,30,02,56,21.40
2021,06,30,02,57,21.40
2021,06,30,02,58,21.40
2021,06,30,02,59,21.40
2021,06,30,03,00,21.40
2021,06,30,03,01,21.40
2021,06,30,03,02,21.40
2021,06,30,03,03,21.40
2021,06,30,03,04,21.40
2021,06,30,03,05,21.40
2021,06,30,03,06,21.30
2021,06,30,03,07,21.30
2021,06,30,03,08,21.40
2021,06,30,03,09,21.30
2021,06,30,03,10,21.30
2021,06,30,03,11,21.30
2021,06,30,03,12,21.30
2021,06,30,03,13,21.30
2021,06,30,03,14,21.30
2021,06,30,03,15,21.30
2021,06,30,03,16,21.30
2021,06,30,03,17,21.30
2021,06,30,03,18,21.30
2021,06,30,03,19,21.20
2021,06,30,03,20,21.20
2021,06,30,03,21,21.20
2021,06,30,03,22,21.20
2021,06,30,03,23,21.10
2021,06,30,03,24,21.10
2021,06,30,03,25,21.10
2021,06,30,03,26,21.10
2021,06,30,03,27,21.10
2021,06,30,03,28,21.10
2021,06,30,03,29,21.10
2021,06,30,03,30,21.10
2021,06,30,03,31,21.10
2021,06,30,03,32,21.00
2021,06,30,03,33,21.00
2021,06,30,03,34,21.00
2021,06,30,03,35,21.00
2021,06,30,03,36,21.00
2021,06,30,03,37,21.00
2021,06,30,03,38,21.00
2021,06,30,03,39,21.00
2021,06,30,03,40,21.00
2021,06,30,03,41,20.90
2021,06,30,03,42,20.90
2021,06,30,03,43,20.90
2021,06,30,03,44,20.90
2021,06,30,03,45,20.90
2021,06,30,03,46,20.90
2021,06,30,03,47,20.90
2021,06,30,03,48,20.90
2021,06,30,03,49,20.90
2021,06,30,03,50,20.80
2021,06,30,03,51,20.80
2021,06,30,03,52,20.80
2021,06,30,03,53,20.70
2021,06,30,03,54,20.70
2021,06,30,03,55,20.60
2021,06,30,03,56,20.50
2021,06,30,03,57,20.50
2021,06,30,03,58,20.50
2021,06,30,03,59,20.40
2021,06,30,04,00,20.40
2021,06,30,04,01,20.40
2021,06,30,04,02,20.40
2021,06,30,04,03,20.30
2021,06,30,04,04,20.30
2021,06,30,04,05,20.30
2021,06,30,04,06,20.30
2021,06,30,04,07,20.30
2021,06,30,04,08,20.30
2021,06,30,04,09,20.30
2021,06,30,04,10,20.30
2021,06,30,04,11,20.30
2021,06,30,04,12,20.30
2021,06,30,04,13,20.20
2021,06,30,04,14,20.20
2021,06,30,04,15,20.20
2021,06,30,04,16,20.20
2021,06,30,04,17,20.20
2021,06,30,04,18,20.20
2021,06,30,04,19,20.20
2021,06,30,04,20,20.20
2021,06,30,04,21,20.20
2021,06,30,04,22,20.10
2021,06,30,04,23,20.10
2021,06,30,04,24,20.10
2021,06,30,04,25,20.10
2021,06,30,04,26,20.10
2021,06,30,04,27,20.10
2021,06,30,04,28,20.10
2021,06,30,04,29,20.10
2021,06,30,04,30,20.10
2021,06,30,04,31,20.10
2021,06,30,04,32,20.10
2021,06,30,04,33,20.10
2021,06,30,04,34,20.20
2021,06,30,04,35,20.20
2021,06,30,04,36,20.20
2021,06,30,04,37,20.20
2021,06,30,04,38,20.20
2021,06,30,04,39,20.20
2021,06,30,04,40,20.20
2021,06,30,04,41,20.20
2021,06,30,04,42,20.20
2021,06,30,04,43,20.20
2021,06,30,04,44,20.30
2021,06,30,04,45,20.20
2021,06,30,04,46,20.20
2021,06,30,04,47,20.20
2021,06,30,04,48,20.20
2021,06,30,04,49,20.20
2021,06,30,04,50,20.20
2021,06,30,04,51,20.30
2021,06,30,04,52,20.30
2021,06,30,04,53,20.30
2021,06,30,04,54,20.30
2021,06,30,04,55,20.30
2021,06,30,04,56,20.30
2021,06,30,04,57,20.30
2021,06,30,04,58,20.30
2021,06,30,04,59,20.30
2021,06,30,05,00,20.30
2021,06,30,05,01,20.30
2021,06,30,05,02,20.30
2021,06,30,05,03,20.20
2021,06,30,05,04,20.20
2021,06,30,05,05,20.20
2021,06,30,05,06,20.20
2021,06,30,05,07,20.20
2021,06,30,05,08,20.20
2021,06,30,05,09,20.20
2021,06,30,05,10,20.20
2021,06,30,05,11,20.20
2021,06,30,05,12,20.20
2021,06,30,05,13,20.20
2021,06,30,05,14,20.20
2021,06,30,05,15,20.20
2021,06,30,05,16,20.20
2021,06,30,05,17,20.20
2021,06,30,05,18,20.20
2021,06,30,05,19,20.20
2021,06,30,05,20,20.20
2021,06,30,05,21,20.20
2021,06,30,05,22,20.20
2021,06,30,05,23,20.20
2021,06,30,05,24,20.20
2021,06,30,05,25,20.20
2021,06,30,05,26,20.10
2021,06,30,05,27,20.10
2021,06,30,05,28,20.10
2021,06,30,05,29,20.10
2021,06,30,05,30,20.10
2021,06,30,05,31,20.10
2021,06,30,05,32,20.10
2021,06,30,05,33,20.10
2021,06,30,05,34,20.10
2021,06,30,05,35,20.10
2021,06,30,05,36,20.10
2021,06,30,05,37,20.10
2021,06,30,05,38,20.10
2021,06,30,05,39,20.10
2021,06,30,05,40,20.10
2021,06,30,05,41,20.10
2021,06,30,05,42,20.10
2021,06,30,05,43,20.10
2021,06,30,05,44,20.10
2021,06,30,05,45,20.10
2021,06,30,05,46,20.10
2021,06,30,05,47,20.10
2021,06,30,05,48,20.10
2021,06,30,05,49,20.10
2021,06,30,05,50,20.10
2021,06,30,05,51,20.20
2021,06,30,05,52,20.20
2021,06,30,05,53,20.20
2021,06,30,05,54,20.20
2021,06,30,05,55,20.20
2021,06,30,05,56,20.20
2021,06,30,05,57,20.20
2021,06,30,05,58,20.20
2021,06,30,05,59,20.30
2021,06,30,06,00,20.30
2021,06,30,06,01,20.30
2021,06,30,06,02,20.30
2021,06,30,06,03,20.30
2021,06,30,06,04,20.30
2021,06,30,06,05,20.40
2021,06,30,06,06,20.40
2021,06,30,06,07,20.40
2021,06,30,06,08,20.40
2021,06,30,06,09,20.40
2021,06,30,06,10,20.50
2021,06,30,06,11,20.50
2021,06,30,06,12,20.50
2021,06,30,06,13,20.60
2021,06,30,06,14,20.60
2021,06,30,06,15,20.60
2021,06,30,06,16,20.60
2021,06,30,06,17,20.70
2021,06,30,06,18,20.70
2021,06,30,06,19,20.80
2021,06,30,06,20,20.80
2021,06,30,06,21,20.80
2021,06,30,06,22,20.80
2021,06,30,06,23,20.90
2021,06,30,06,24,21.00
2021,06,30,06,25,21.00
2021,06,30,06,26,21.10
2021,06,30,06,27,21.10
2021,06,30,06,28,21.20
2021,06,30,06,29,21.20
2021,06,30,06,30,21.30
2021,06,30,06,31,21.30
2021,06,30,06,32,21.40
2021,06,30,06,33,21.40
2021,06,30,06,34,21.50
2021,06,30,06,35,21.50
2021,06,30,06,36,21.60
2021,06,30,06,37,21.70
2021,06,30,06,38,21.60
2021,06,30,06,39,21.60
2021,06,30,06,40,21.60
2021,06,30,06,41,21.60
2021,06,30,06,42,21.70
2021,06,30,06,43,21.70
2021,06,30,06,44,21.80
2021,06,30,06,45,21.80
2021,06,30,06,46,21.90
2021,06,30,06,47,22.00
2021,06,30,06,48,22.10
2021,06,30,06,49,22.20
2021,06,30,06,50,22.20
2021,06,30,06,51,22.20
2021,06,30,06,52,22.20
2021,06,30,06,53,22.30
2021,06,30,06,54,22.30
2021,06,30,06,55,22.30
2021,06,30,06,56,22.30
2021,06,30,06,57,22.40
2021,06,30,06,58,22.40
2021,06,30,06,59,22.50
2021,06,30,07,00,22.50
2021,06,30,07,01,22.60
2021,06,30,07,02,22.60
2021,06,30,07,03,22.60
2021,06,30,07,04,22.60
2021,06,30,07,05,22.60
2021,06,30,07,06,22.60
2021,06,30,07,07,22.60
2021,06,30,07,08,22.60
2021,06,30,07,09,22.60
2021,06,30,07,10,22.70
2021,06,30,07,11,22.70
2021,06,30,07,12,22.80
2021,06,30,07,13,22.80
2021,06,30,07,14,22.90
2021,06,30,07,15,22.90
2021,06,30,07,16,22.90
2021,06,30,07,17,22.80
2021,06,30,07,18,22.80
2021,06,30,07,19,22.80
2021,06,30,07,20,22.80
2021,06,30,07,21,22.70
2021,06,30,07,22,22.70
2021,06,30,07,23,22.60
2021,06,30,07,24,22.60
2021,06,30,07,25,22.50
2021,06,30,07,26,22.40
2021,06,30,07,27,22.40
2021,06,30,07,28,22.40
2021,06,30,07,29,22.40
2021,06,30,07,30,22.40
2021,06,30,07,31,22.40
2021,06,30,07,32,22.50
2021,06,30,07,33,22.50
2021,06,30,07,34,22.60
2021,06,30,07,35,22.60
2021,06,30,07,36,22.70
2021,06,30,07,37,22.70
2021,06,30,07,38,22.70
2021,06,30,07,39,22.70
2021,06,30,07,40,22.70
2021,06,30,07,41,22.80
2021,06,30,07,42,22.80
2021,06,30,07,43,22.80
2021,06,30,07,44,22.80
2021,06,30,07,45,22.80
2021,06,30,07,46,22.80
2021,06,30,07,47,22.80
2021,06,30,07,48,22.80
2021,06,30,07,49,22.80
2021,06,30,07,50,22.80
2021,06,30,07,51,22.80
2021,06,30,07,52,22.80
2021,06,30,07,53,22.70
2021,06,30,07,54,22.70
2021,06,30,07,55,22.70
2021,06,30,07,56,22.70
2021,06,30,07,57,22.70
2021,06,30,07,58,22.70
2021,06,30,07,59,22.70
2021,06,30,08,00,22.60
2021,06,30,08,01,22.70
2021,06,30,08,02,22.70
2021,06,30,08,03,22.70
2021,06,30,08,04,22.70
2021,06,30,08,05,22.60
2021,06,30,08,06,22.60
2021,06,30,08,07,22.60
2021,06,30,08,08,22.50
2021,06,30,08,09,22.50
2021,06,30,08,10,22.60
2021,06,30,08,11,22.60
2021,06,30,08,12,22.60
2021,06,30,08,13,22.70
2021,06,30,08,14,22.70
2021,06,30,08,15,22.70
2021,06,30,08,16,22.80
2021,06,30,08,17,22.80
2021,06,30,08,18,22.90
2021,06,30,08,19,22.90
2021,06,30,08,20,23.00
2021,06,30,08,21,23.00
2021,06,30,08,22,23.00
2021,06,30,08,23,23.10
2021,06,30,08,24,23.10
2021,06,30,08,25,23.10
2021,06,30,08,26,23.10
2021,06,30,08,27,23.20
2021,06,30,08,28,23.30
2021,06,30,08,29,23.40
2021,06,30,08,30,23.50
2021,06,30,08,31,23.50
2021,06,30,08,32,23.60
2021,06,30,08,33,23.70
2021,06,30,08,34,23.70
2021,06,30,08,35,23.70
2021,06,30,08,36,23.70
2021,06,30,08,37,23.70
2021,06,30,08,38,23.70
2021,06,30,08,39,23.70
2021,06,30,08,40,23.70
2021,06,30,08,41,23.70
2021,06,30,08,42,23.50
2021,06,30,08,43,23.40
2021,06,30,08,44,23.30
2021,06,30,08,45,23.30
2021,06,30,08,46,23.20
2021,06,30,08,47,23.20
2021,06,30,08,48,23.20
2021,06,30,08,49,23.20
2021,06,30,08,50,23.20
2021,06,30,08,51,23.20
2021,06,30,08,52,23.30
2021,06,30,08,53,23.40
2021,06,30,08,54,23.40
2021,06,30,08,55,23.40
2021,06,30,08,56,23.40
2021,06,30,08,57,23.40
2021,06,30,08,58,23.30
2021,06,30,08,59,23.40
2021,06,30,09,00,23.40
2021,06,30,09,01,23.40
2021,06,30,09,02,23.40
2021,06,30,09,03,23.50
2021,06,30,09,04,23.50
2021,06,30,09,05,23.60
2021,06,30,09,06,23.60
2021,06,30,09,07,23.70
2021,06,30,09,08,23.70
2021,06,30,09,09,23.80
2021,06,30,09,10,23.80
2021,06,30,09,11,23.80
2021,06,30,09,12,23.80
2021,06,30,09,13,23.80
2021,06,30,09,14,23.80
2021,06,30,09,15,23.80
2021,06,30,09,16,23.80
2021,06,30,09,17,23.80
2021,06,30,09,18,23.80
2021,06,30,09,19,23.70
2021,06,30,09,20,23.70
2021,06,30,09,21,23.70
2021,06,30,09,22,23.70
2021,06,30,09,23,23.70
2021,06,30,09,24,23.70
2021,06,30,09,25,23.70
2021,06,30,09,26,23.70
2021,06,30,09,27,23.70
2021,06,30,09,28,23.70
2021,06,30,09,29,23.70
2021,06,30,09,30,23.70
2021,06,30,09,31,23.60
2021,06,30,09,32,23.60
2021,06,30,09,33,23.60
2021,06,30,09,34,23.50
2021,06,30,09,35,23.50
2021,06,30,09,36,23.60
2021,06,30,09,37,23.60
2021,06,30,09,38,23.50
2021,06,30,09,39,23.40
2021,06,30,09,40,23.40
2021,06,30,09,41,23.30
2021,06,30,09,42,23.30
2021,06,30,09,43,23.30
2021,06,30,09,44,23.30
2021,06,30,09,45,23.30
2021,06,30,09,46,23.30
2021,06,30,09,47,23.40
2021,06,30,09,48,23.50
2021,06,30,09,49,23.50
2021,06,30,09,50,23.60
2021,06,30,09,51,23.60
2021,06,30,09,52,23.50
2021,06,30,09,53,23.50
2021,06,30,09,54,23.50
2021,06,30,09,55,23.40
2021,06,30,09,56,23.40
2021,06,30,09,57,23.40
2021,06,30,09,58,23.30
2021,06,30,09,59,23.20
2021,06,30,10,00,23.10
2021,06,30,10,01,23.00
2021,06,30,10,02,23.00
2021,06,30,10,03,22.90
2021,06,30,10,04,23.00
2021,06,30,10,05,23.00
2021,06,30,10,06,23.10
2021,06,30,10,07,23.00
2021,06,30,10,08,23.00
2021,06,30,10,09,23.00
2021,06,30,10,10,22.90
2021,06,30,10,11,23.00
2021,06,30,10,12,23.10
2021,06,30,10,13,23.20
2021,06,30,10,14,23.30
2021,06,30,10,15,23.40
2021,06,30,10,16,23.40
2021,06,30,10,17,23.40
2021,06,30,10,18,23.30
2021,06,30,10,19,23.10
2021,06,30,10,20,22.80
2021,06,30,10,21,22.70
2021,06,30,10,22,22.60
2021,06,30,10,23,22.60
2021,06,30,10,24,22.60
2021,06,30,10,25,22.60
2021,06,30,10,26,22.60
2021,06,30,10,27,22.40
2021,06,30,10,28,22.40
2021,06,30,10,29,22.30
2021,06,30,10,30,22.20
2021,06,30,10,31,22.20
2021,06,30,10,32,22.10
2021,06,30,10,33,22.10
2021,06,30,10,34,22.10
2021,06,30,10,35,22.00
2021,06,30,10,36,22.00
2021,06,30,10,37,21.90
2021,06,30,10,38,21.80
2021,06,30,10,39,21.70
2021,06,30,10,40,21.60
2021,06,30,10,41,21.60
2021,06,30,10,42,21.60
2021,06,30,10,43,21.70
2021,06,30,10,44,21.70
2021,06,30,10,45,21.70
2021,06,30,10,46,21.60
2021,06,30,10,47,21.50
2021,06,30,10,48,21.50
2021,06,30,10,49,21.30
2021,06,30,10,50,21.20
2021,06,30,10,51,21.10
2021,06,30,10,52,21.00
2021,06,30,10,53,21.00
2021,06,30,10,54,21.00
2021,06,30,10,55,21.10
2021,06,30,10,56,21.10
2021,06,30,10,57,21.10
2021,06,30,10,58,21.10
2021,06,30,10,59,21.20
2021,06,30,11,00,21.20
2021,06,30,11,01,21.20
2021,06,30,11,02,21.30
2021,06,30,11,03,21.40
2021,06,30,11,04,21.50
2021,06,30,11,05,21.50
2021,06,30,11,06,21.40
2021,06,30,11,07,21.40
2021,06,30,11,08,21.40
2021,06,30,11,09,21.40
2021,06,30,11,10,21.40
2021,06,30,11,11,21.50
2021,06,30,11,12,21.50
2021,06,30,11,13,21.60
2021,06,30,11,14,21.60
2021,06,30,11,15,21.50
2021,06,30,11,16,21.50
2021,06,30,11,17,21.50
2021,06,30,11,18,21.60
2021,06,30,11,19,21.60
2021,06,30,11,20,21.70
2021,06,30,11,21,21.80
2021,06,30,11,22,21.80
2021,06,30,11,23,21.70
2021,06,30,11,24,21.60
2021,06,30,11,25,21.60
2021,06,30,11,26,21.50
2021,06,30,11,27,21.40
2021,06,30,11,28,21.30
2021,06,30,11,29,21.20
2021,06,30,11,30,21.00
2021,06,30,11,31,21.00
2021,06,30,11,32,21.00
2021,06,30,11,33,21.00
2021,06,30,11,34,21.00
2021,06,30,11,35,21.00
2021,06,30,11,36,21.00
2021,06,30,11,37,20.90
2021,06,30,11,38,20.90
2021,06,30,11,39,20.90
2021,06,30,11,40,20.90
2021,06,30,11,41,20.90
2021,06,30,11,42,21.10
2021,06,30,11,43,21.20
2021,06,30,11,44,21.30
2021,06,30,11,45,21.30
2021,06,30,11,46,21.30
2021,06,30,11,47,21.30
2021,06,30,11,48,21.40
2021,06,30,11,49,21.40
2021,06,30,11,50,21.50
2021,06,30,11,51,21.50
2021,06,30,11,52,21.60
2021,06,30,11,53,21.70
2021,06,30,11,54,21.70
2021,06,30,11,55,21.70
2021,06,30,11,56,21.60
2021,06,30,11,57,21.50
2021,06,30,11,58,21.40
2021,06,30,11,59,21.30
2021,06,30,12,00,21.30
2021,06,30,12,01,21.30
2021,06,30,12,02,21.30
2021,06,30,12,03,21.30
2021,06,30,12,04,21.30
2021,06,30,12,05,21.30
2021,06,30,12,06,21.40
2021,06,30,12,07,21.40
2021,06,30,12,08,21.50
2021,06,30,12,09,21.60
2021,06,30,12,10,21.70
2021,06,30,12,11,21.80
2021,06,30,12,12,21.80
2021,06,30,12,13,21.80
2021,06,30,12,14,21.80
2021,06,30,12,15,21.80
2021,06,30,12,16,21.80
2021,06,30,12,17,21.80
2021,06,30,12,18,21.90
2021,06,30,12,19,21.90
2021,06,30,12,20,22.00
2021,06,30,12,21,22.10
2021,06,30,12,22,22.10
2021,06,30,12,23,22.20
2021,06,30,12,24,22.30
2021,06,30,12,25,22.30
2021,06,30,12,26,22.30
2021,06,30,12,27,22.30
2021,06,30,12,28,22.30
2021,06,30,12,29,22.30
2021,06,30,12,30,22.20
2021,06,30,12,31,22.20
2021,06,30,12,32,22.00
2021,06,30,12,33,21.80
2021,06,30,12,34,21.60
2021,06,30,12,35,21.60
2021,06,30,12,36,21.60
2021,06,30,12,37,21.60
2021,06,30,12,38,21.60
2021,06,30,12,39,21.60
2021,06,30,12,40,21.70
2021,06,30,12,41,21.80
2021,06,30,12,42,21.90
2021,06,30,12,43,22.00
2021,06,30,12,44,22.00
2021,06,30,12,45,22.00
2021,06,30,12,46,22.10
2021,06,30,12,47,22.00
2021,06,30,12,48,21.90
2021,06,30,12,49,21.90
2021,06,30,12,50,22.00
2021,06,30,12,51,22.00
2021,06,30,12,52,22.00
2021,06,30,12,53,22.00
2021,06,30,12,54,22.00
2021,06,30,12,55,21.90
2021,06,30,12,56,21.90
2021,06,30,12,57,21.80
2021,06,30,12,58,21.80
2021,06,30,12,59,21.90
2021,06,30,13,00,22.00
2021,06,30,13,01,22.10
2021,06,30,13,02,22.30
2021,06,30,13,03,22.40
2021,06,30,13,04,22.50
2021,06,30,13,05,22.50
2021,06,30,13,06,22.60
2021,06,30,13,07,22.50
2021,06,30,13,08,22.40
2021,06,30,13,09,22.30
2021,06,30,13,10,22.20
2021,06,30,13,11,22.10
2021,06,30,13,12,22.10
2021,06,30,13,13,22.10
2021,06,30,13,14,22.10
2021,06,30,13,15,22.10
2021,06,30,13,16,22.10
2021,06,30,13,17,22.10
2021,06,30,13,18,22.20
2021,06,30,13,19,22.20
2021,06,30,13,20,22.10
2021,06,30,13,21,22.10
2021,06,30,13,22,22.10
2021,06,30,13,23,22.10
2021,06,30,13,24,22.10
2021,06,30,13,25,22.20
2021,06,30,13,26,22.30
2021,06,30,13,27,22.40
2021,06,30,13,28,22.40
2021,06,30,13,29,22.40
2021,06,30,13,30,22.30
2021,06,30,13,31,22.30
2021,06,30,13,32,22.20
2021,06,30,13,33,22.20
2021,06,30,13,34,22.20
2021,06,30,13,35,22.30
2021,06,30,13,36,22.40
2021,06,30,13,37,22.50
2021,06,30,13,38,22.60
2021,06,30,13,39,22.70
2021,06,30,13,40,22.70
2021,06,30,13,41,22.70
2021,06,30,13,42,22.80
2021,06,30,13,43,22.80
2021,06,30,13,44,22.90
2021,06,30,13,45,22.90
2021,06,30,13,46,22.80
2021,06,30,13,47,22.60
2021,06,30,13,48,22.50
2021,06,30,13,49,22.30
2021,06,30,13,50,22.20
2021,06,30,13,51,22.10
2021,06,30,13,52,22.00
2021,06,30,13,53,21.90
2021,06,30,13,54,21.90
2021,06,30,13,55,21.90
2021,06,30,13,56,21.90
2021,06,30,13,57,21.90
2021,06,30,13,58,21.80
2021,06,30,13,59,21.80
2021,06,30,14,00,21.80
2021,06,30,14,01,21.70
2021,06,30,14,02,21.70
2021,06,30,14,03,21.80
2021,06,30,14,04,21.90
2021,06,30,14,05,22.00
2021,06,30,14,06,22.00
2021,06,30,14,07,22.00
2021,06,30,14,08,21.90
2021,06,30,14,09,21.80
2021,06,30,14,10,21.70
2021,06,30,14,11,21.70
2021,06,30,14,12,21.70
2021,06,30,14,13,21.70
2021,06,30,14,14,21.80
2021,06,30,14,15,21.80
2021,06,30,14,16,21.90
2021,06,30,14,17,21.90
2021,06,30,14,18,22.00
2021,06,30,14,19,22.00
2021,06,30,14,20,22.00
2021,06,30,14,21,21.90
2021,06,30,14,22,21.90
2021,06,30,14,23,21.90
2021,06,30,14,24,21.80
2021,06,30,14,25,21.80
2021,06,30,14,26,21.80
2021,06,30,14,27,21.70
2021,06,30,14,28,21.70
2021,06,30,14,29,21.70
2021,06,30,14,30,21.60
2021,06,30,14,31,21.50
2021,06,30,14,32,21.40
2021,06,30,14,33,21.40
2021,06,30,14,34,21.30
2021,06,30,14,35,21.30
2021,06,30,14,36,21.40
2021,06,30,14,37,21.40
2021,06,30,14,38,21.40
2021,06,30,14,39,21.50
2021,06,30,14,40,21.60
2021,06,30,14,41,21.60
2021,06,30,14,42,21.70
2021,06,30,14,43,21.60
2021,06,30,14,44,21.60
2021,06,30,14,45,21.50
2021,06,30,14,46,21.50
2021,06,30,14,47,21.50
2021,06,30,14,48,21.50
2021,06,30,14,49,21.50
2021,06,30,14,50,21.50
2021,06,30,14,51,21.50
2021,06,30,14,52,21.50
2021,06,30,14,53,21.60
2021,06,30,14,54,21.60
2021,06,30,14,55,21.70
2021,06,30,14,56,21.80
2021,06,30,14,57,21.90
2021,06,30,14,58,22.10
2021,06,30,14,59,22.20
2021,06,30,15,00,22.30
2021,06,30,15,01,22.50
2021,06,30,15,02,22.70
2021,06,30,15,03,22.90
2021,06,30,15,04,23.10
2021,06,30,15,05,23.30
2021,06,30,15,06,23.50
2021,06,30,15,07,23.70
2021,06,30,15,08,23.80
2021,06,30,15,09,24.00
2021,06,30,15,10,24.10
2021,06,30,15,11,24.20
2021,06,30,15,12,24.40
2021,06,30,15,13,24.50
2021,06,30,15,14,24.80
2021,06,30,15,15,25.00
2021,06,30,15,16,25.20
2021,06,30,15,17,25.50
2021,06,30,15,18,25.70
2021,06,30,15,19,26.00
2021,06,30,15,20,26.10
2021,06,30,15,21,26.40
2021,06,30,15,22,26.60
2021,06,30,15,23,26.80
2021,06,30,15,24,26.90
2021,06,30,15,25,26.90
2021,06,30,15,26,27.00
2021,06,30,15,27,27.00
2021,06,30,15,28,27.10
2021,06,30,15,29,27.10
2021,06,30,15,30,27.20
2021,06,30,15,31,27.20
2021,06,30,15,32,27.30
2021,06,30,15,33,27.30
2021,06,30,15,34,27.40
2021,06,30,15,35,27.50
2021,06,30,15,36,27.60
2021,06,30,15,37,27.70
2021,06,30,15,38,27.80
2021,06,30,15,39,27.90
2021,06,30,15,40,27.90
2021,06,30,15,41,28.00
2021,06,30,15,42,28.00
2021,06,30,15,43,28.10
2021,06,30,15,44,28.10
2021,06,30,15,45,28.10
2021,06,30,15,46,28.10
2021,06,30,15,47,28.10
2021,06,30,15,48,28.00
2021,06,30,15,49,27.90
2021,06,30,15,50,27.90
2021,06,30,15,51,28.00
2021,06,30,15,52,28.00
2021,06,30,15,53,28.10
2021,06,30,15,54,28.00
2021,06,30,15,55,28.00
2021,06,30,15,56,28.00
2021,06,30,15,57,28.00
2021,06,30,15,58,28.00
2021,06,30,15,59,28.10
2021,06,30,16,00,28.10
2021,06,30,16,01,28.10
2021,06,30,16,02,28.10
2021,06,30,16,03,28.20
2021,06,30,16,04,28.20
2021,06,30,16,05,28.30
2021,06,30,16,06,28.30
2021,06,30,16,07,28.40
2021,06,30,16,08,28.30
2021,06,30,16,09,28.30
2021,06,30,16,10,28.30
2021,06,30,16,11,28.30
2021,06,30,16,12,28.30
2021,06,30,16,13,28.20
2021,06,30,16,14,28.10
2021,06,30,16,15,28.10
2021,06,30,16,16,28.20
2021,06,30,16,17,28.20
2021,06,30,16,18,28.30
2021,06,30,16,19,28.30
2021,06,30,16,20,28.30
2021,06,30,16,21,28.30
2021,06,30,16,22,28.30
2021,06,30,16,23,28.30
2021,06,30,16,24,28.30
2021,06,30,16,25,28.30
2021,06,30,16,26,28.30
2021,06,30,16,27,28.30
2021,06,30,16,28,28.30
2021,06,30,16,29,28.50
2021,06,30,16,30,28.60
2021,06,30,16,31,28.70
2021,06,30,16,32,28.70
2021,06,30,16,33,28.70
2021,06,30,16,34,28.70
2021,06,30,16,35,28.60
2021,06,30,16,36,28.60
2021,06,30,16,37,28.60
2021,06,30,16,38,28.60
2021,06,30,16,39,28.70
2021,06,30,16,40,28.80
2021,06,30,16,41,28.80
2021,06,30,16,42,28.80
2021,06,30,16,43,28.70
2021,06,30,16,44,28.70
2021,06,30,16,45,28.70
2021,06,30,16,46,28.70
2021,06,30,16,47,28.70
2021,06,30,16,48,28.70
2021,06,30,16,49,28.70
2021,06,30,16,50,28.70
2021,06,30,16,51,28.60
2021,06,30,16,52,28.60
2021,06,30,16,53,28.60
2021,06,30,16,54,28.60
2021,06,30,16,55,28.60
2021,06,30,16,56,28.60
2021,06,30,16,57,28.60
2021,06,30,16,58,28.50
2021,06,30,16,59,28.40
2021,06,30,17,00,28.40
2021,06,30,17,01,28.40
2021,06,30,17,02,28.40
2021,06,30,17,03,28.40
2021,06,30,17,04,28.40
2021,06,30,17,05,28.40
2021,06,30,17,06,28.40
2021,06,30,17,07,28.30
2021,06,30,17,08,28.20
2021,06,30,17,09,28.20
2021,06,30,17,10,28.20
2021,06,30,17,11,28.20
2021,06,30,17,12,28.20
2021,06,30,17,13,28.10
2021,06,30,17,14,28.10
2021,06,30,17,15,28.10
2021,06,30,17,16,28.10
2021,06,30,17,17,28.20
2021,06,30,17,18,28.20
2021,06,30,17,19,28.20